Home > Time Zones > World Clock > Weather > Ghana > Accra > Past weeks

Flag for Ghana Weather past 2 weeks in Accra, Ghana

Now
82 °F

Passing clouds.


Feels Like: 92 °F
Forecast: N/A
Wind: 7 mph from Southwest

Location: Accra Airport

Current Time: Mar 4, 2015 at 9:05:18 PM

Latest Report: Mar 4, 2015 at 8:00 PM


Visibility: N/A

Pressure: 29.86 "Hg

Humidity: 89%

Dew point: 79 °F

Location of AccraLocation

Historic Weather in Accra — Graph

°F

Accra temperature yesterday

Maximum temperature yesterday: 90 °F (at 1:00 PM)
Minimum temperature yesterday: 79 °F (at 5:51 AM)
Average temperature yesterday: 84 °F

Past Weeks' High & Low Weather Summary

 TemperatureHumidityPressure
High93 °F (Mar 1, 11:51 AM)100% (Feb 18, 10:00 PM)29.92 "Hg (Feb 18, 10:00 PM)
Low73 °F (Feb 18, 10:00 PM)49% (Mar 2, 12:00 PM)29.74 "Hg (Feb 18, 2:00 PM)
Average83 °F81%29.83 "Hg
* Reported Feb 17 7:00 PM — Mar 4 7:00 PM, Accra, Weather by CustomWeather, © 2015

Note: Actual official high and low records may vary slightly from our data, if they occured in-between our weather recording intervals... More about our weather records

Advertising

Accra weather history for previous 24 hours

 ConditionsComfort  
Time TempWeatherWind HumidityBarometerVisibility
7:00 PM
Wed, Mar 4
84 °FPassing clouds.12 mph79%29.83 "HgN/A
6:00 PM84 °FScattered clouds.8 mph79%29.83 "HgN/A
5:00 PM86 °FPassing clouds.12 mph75%29.80 "HgN/A
4:00 PM86 °FPassing clouds.14 mph75%29.80 "HgN/A
3:00 PM88 °FPassing clouds.13 mph66%29.80 "HgN/A
2:00 PM88 °FPassing clouds.14 mph66%29.83 "HgN/A
1:00 PM88 °FPassing clouds.12 mph66%29.86 "HgN/A
12:00 PM90 °FPassing clouds.10 mph63%29.86 "HgN/A
11:00 AM90 °FPartly sunny.8 mph63%29.89 "HgN/A
10:00 AM86 °FPartly sunny.10 mph70%29.89 "HgN/A
9:00 AM84 °FScattered clouds.9 mph74%29.89 "HgN/A
8:00 AM81 °FScattered clouds.7 mph94%29.89 "HgN/A
7:00 AM81 °FPassing clouds.7 mph89%29.86 "HgN/A
6:00 AM79 °FClear.3 mph94%29.83 "Hg10 mi
5:00 AM81 °FPassing clouds.7 mph89%29.83 "HgN/A
4:00 AM81 °FPassing clouds.5 mph89%29.83 "HgN/A
3:00 AM81 °FPassing clouds.7 mph89%29.83 "HgN/A
1:00 AM82 °FPassing clouds.7 mph84%29.86 "HgN/A
12:00 AM82 °FPassing clouds.8 mph84%29.89 "HgN/A
11:00 PM
Tue, Mar 3
82 °FPassing clouds.7 mph84%29.92 "HgN/A
10:00 PM82 °FPassing clouds.9 mph84%29.92 "HgN/A
9:00 PM82 °FPassing clouds.8 mph84%29.89 "HgN/A
Weather by CustomWeather, © 2015

See weather overviewHow to use our weather pages